Location: Songkhla
(7.2000°N, 100.6000°E)
Time: 20:37:10
(UTC+07:00)

ISS - Pass Details

Date: 20 April 2026
Orbit: 414 x 424 km, 51.6° (Epoch: 19 May)

Event Time Altitude Azimuth Distance (km) Brightness Sun altitude
Rises 14:02:44 0° 292° (WNW) 2,368 0.4 63.5°
Reaches altitude 10° 14:05:57 10° 258° (WSW) 1,504 -0.4 62.7°
Maximum altitude 14:07:16 12° 235° (SW) 1,397 -0.6 62.4°
Drops below altitude 10° 14:08:35 10° 212° (SSW) 1,503 -0.7 62.0°
Sets 14:11:48 0° 179° (S) 2,366 0.0 61.3°
